Location: Alumbaugh
(37.5976°N, 83.9299°W)
Time: 02:23:24
(UTC+00:00)

Oscar 11 - Pass Details

Date: 03 April 2023
Orbit: 609 x 619 km, 97.7° (Epoch: 07 June)

Event Time Altitude Azimuth Distance (km) Brightness Sun altitude
Rises 09:51:16 0° 14° (NNE) 2,880 11.0 -17.5°
Reaches altitude 10° 09:53:28 10° 17° (NNE) 1,972 10.1 -17.1°
Maximum altitude 09:57:44 71° 101° (E) 649 7.3 -16.3°
Drops below altitude 10° 10:02:00 10° 186° (S) 1,963 9.4 -15.6°
Enters shadow 10:03:38 - 188° (S) 2,638 10.0 -15.2°
